EW6866 Weather Reports


time (UTC)temp
F
wind
direction
speed
knots
gust
knots
rain 1hr
in
rain 24hr
in
rain mn
in
humidity
%
barometer
mb
20260903020005 81 0 0.0 0.0 0.00 0.00 0.00 94 1016.2
20260903014504 81 0 0.0 0.0 0.00 0.00 0.00 93 1016.2
20260903013004 81 0 0.0 0.0 0.00 0.00 0.00 93 1016.1
20260903011505 81 0 0.0 0.0 0.00 0.00 0.00 92 1016.1
20260903010004 82 0 0.0 0.0 0.00 0.00 0.00 91 1015.5
20260903004504 82 77 0.0 0.9 0.00 0.00 0.00 90 1015.0
20260903003005 83 66 0.0 0.9 0.00 0.00 0.00 90 1015.0
20260903001504 83 0 0.0 0.0 0.00 0.00 0.00 89 1015.2
20260903000004 84 0 0.0 0.0 0.00 0.00 0.00 88 1015.7
20260902234505 84 65 0.0 0.9 0.00 0.00 0.00 88 1015.9
20260902233026 84 79 0.0 0.9 0.00 0.00 0.00 87 1016.1
20260902231525 85 63 0.0 0.9 0.00 0.00 0.00 87 1016.4
20260902230005 85 71 0.0 0.9 0.00 0.00 0.00 86 1016.0
20260902224505 86 81 0.0 1.7 0.00 0.00 0.00 84 1015.9
20260902223025 87 59 0.0 2.6 0.00 0.00 0.00 82 1016.0
20260902221504 87 59 0.9 1.7 0.00 0.00 0.00 82 1015.8
20260902220005 88 60 0.9 2.6 0.00 0.00 0.00 80 1015.8
20260902214505 89 52 0.0 1.7 0.00 0.00 0.00 80 1015.9
20260902213004 90 41 0.0 1.7 0.00 0.00 0.00 79 1016.0
20260902211504 91 46 0.0 1.7 0.00 0.00 0.00 77 1015.8
20260902210004 91 56 0.9 3.5 0.00 0.00 0.00 77 1015.3
20260902204505 92 60 0.0 1.7 0.00 0.00 0.00 77 1014.9
20260902203025 93 62 0.0 0.9 0.00 0.00 0.00 74 1014.9
20260902201505 96 273 0.0 0.9 0.00 0.00 0.00 70 1015.0
20260902200004 98 267 0.0 3.5 0.00 0.00 0.00 65 1015.1
20260902194505 97 109 0.0 0.9 0.00 0.00 0.00 57 1015.3
20260902193004 97 59 0.0 0.9 0.00 0.00 0.00 60 1015.5
20260902191504 98 85 0.0 0.9 0.00 0.00 0.00 58 1015.6
20260902190004 98 96 0.0 1.7 0.00 0.00 0.00 58 1015.8
20260902184505 98 138 0.0 1.7 0.00 0.00 0.00 61 1015.7
20260902183004 97 117 0.0 1.7 0.00 0.00 0.00 60 1015.8
20260902181504 96 75 0.0 1.7 0.00 0.00 0.00 61 1015.8
20260902180006 98 106 0.0 0.9 0.00 0.00 0.00 59 1015.9
20260902174505 97 145 0.0 0.9 0.00 0.00 0.00 62 1015.8
20260902173005 95 75 0.0 1.7 0.00 0.00 0.00 63 1015.8
20260902171504 94 79 0.0 1.7 0.00 0.00 0.00 67 1015.9
20260902170004 94 91 0.0 1.7 0.00 0.00 0.00 68 1015.9
20260902164504 94 76 0.0 0.9 0.00 0.00 0.00 66 1016.0
20260902163004 93 80 0.0 0.9 0.00 0.00 0.00 73 1016.1
20260902161504 93 118 0.0 1.7 0.00 0.00 0.00 72 1016.2
20260902160007 93 138 0.0 2.6 0.00 0.00 0.00 73 1016.2
20260902154504 93 170 0.0 3.5 0.00 0.00 0.00 71 1016.3
20260902153026 92 0 0.0 0.0 0.00 0.00 0.00 72 1016.3
20260902151503 91 188 0.0 1.7 0.00 0.00 0.00 73 1016.2
20260902150004 89 135 0.0 3.5 0.00 0.00 0.00 75 1016.1
20260902144503 88 183 0.0 1.7 0.00 0.00 0.00 78 1016.0
20260902143004 86 215 0.0 1.7 0.00 0.00 0.00 81 1015.9
20260902141504 85 180 0.0 1.7 0.00 0.00 0.00 81 1015.9
20260902140004 84 144 0.0 2.6 0.00 0.00 0.00 84 1016.0
20260902134503 83 232 0.0 0.9 0.00 0.00 0.00 85 1015.9
20260902133004 82 151 0.0 0.9 0.00 0.00 0.00 86 1016.1
20260902131504 81 160 0.0 1.7 0.00 0.00 0.00 87 1016.2
20260902130003 80 127 0.0 2.6 0.00 0.00 0.00 88 1016.1
20260902124504 80 119 0.0 1.7 0.00 0.00 0.00 89 1016.1
20260902123004 79 185 0.0 1.7 0.00 0.00 0.00 90 1016.2
20260902121503 78 147 0.0 2.6 0.00 0.00 0.00 92 1016.3
20260902120004 77 219 0.0 1.7 0.00 0.00 0.00 94 1016.2
20260902114504 76 118 0.0 0.9 0.00 0.00 0.00 95 1016.1
20260902113003 76 0 0.0 0.0 0.00 0.00 0.00 95 1015.9
20260902111504 75 0 0.0 0.0 0.00 0.00 0.00 95 1015.8
20260902110005 75 0 0.0 0.0 0.00 0.00 0.00 95 1015.8
20260902104504 75 119 0.0 0.9 0.00 0.00 0.00 95 1015.7
20260902103024 75 0 0.0 0.0 0.00 0.00 0.00 94 1015.7
20260902101504 75 0 0.0 0.0 0.00 0.00 0.00 94 1015.8
20260902100004 75 0 0.0 0.0 0.00 0.00 0.00 94 1015.7
20260902094503 76 0 0.0 0.0 0.00 0.00 0.00 94 1015.6
20260902093003 76 0 0.0 0.0 0.00 0.00 0.00 94 1015.7
20260902091504 76 0 0.0 0.0 0.00 0.00 0.00 94 1015.6
20260902090025 76 0 0.0 0.0 0.00 0.00 0.00 94 1015.5
20260902084503 76 0 0.0 0.0 0.00 0.00 0.00 93 1015.5
20260902083003 76 0 0.0 0.0 0.00 0.00 0.00 93 1015.5
20260902081504 76 0 0.0 0.0 0.00 0.00 0.00 93 1015.5
20260902080003 76 0 0.0 0.0 0.00 0.00 0.00 93 1015.4
20260902074505 76 0 0.0 0.0 0.00 0.00 0.00 92 1015.5
20260902073005 76 0 0.0 0.0 0.00 0.00 0.00 92 1015.7
20260902071505 76 143 0.0 0.9 0.00 0.00 0.00 91 1015.7
20260902070007 77 0 0.0 0.0 0.00 0.00 0.00 90 1015.8
20260902064505 77 0 0.0 0.0 0.00 0.00 0.00 90 1015.9
20260902063005 77 0 0.0 0.0 0.00 0.00 0.00 89 1015.9
20260902061505 77 136 0.0 2.6 0.00 0.00 0.00 89 1016.0
20260902060005 77 125 0.0 0.9 0.00 0.00 0.00 89 1016.1
20260902054505 77 0 0.0 0.0 0.00 0.00 0.00 89 1016.2
20260902053026 77 126 0.0 0.9 0.00 0.00 0.00 89 1016.1
20260902051505 78 0 0.0 0.0 0.00 0.00 0.00 88 1016.2
20260902050007 78 134 0.0 0.9 0.00 0.00 0.00 88 1016.3
20260902044505 78 0 0.0 0.0 0.00 0.00 0.00 88 1016.1
20260902043026 79 228 0.0 0.9 0.00 0.00 0.00 87 1015.8
20260902041505 79 0 0.0 0.0 0.00 0.00 0.00 86 1015.6
20260902040006 80 229 0.0 0.9 0.00 0.00 0.00 86 1015.4
20260902034504 80 139 0.0 1.7 0.00 0.00 0.00 85 1015.5
20260902033026 80 131 0.0 1.7 0.00 0.00 0.00 86 1015.6
20260902031526 81 151 0.0 1.7 0.00 0.00 0.00 86 1015.7
20260902030005 81 210 0.0 0.9 0.00 0.00 0.00 86 1015.5
20260902024505 81 207 0.0 2.6 0.00 0.00 0.00 86 1015.4
20260902023026 82 169 0.0 3.5 0.00 0.00 0.00 86 1015.4
20260902021505 82 0 0.0 0.0 0.00 0.00 0.00 87 1015.4